TimeCST,TemperatureF,Dew PointF,Humidity,Sea Level PressureIn,VisibilityMPH,Wind Direction,Wind SpeedMPH,Gust SpeedMPH,PrecipitationIn,Events,Conditions,WindDirDegrees,DateUTC
12:10 AM,48.2,46.4,93,30.20,5.0,NNW,9.2,-,N/A,Rain,Light Rain,340,2013-11-07 06:10:00
12:30 AM,46.4,44.6,93,30.20,3.0,NNW,11.5,23.0,0.02,Rain,Light Rain,330,2013-11-07 06:30:00
12:50 AM,46.4,42.8,87,30.21,5.0,NNW,13.8,18.4,0.02,Rain,Light Rain,330,2013-11-07 06:50:00
1:10 AM,46.4,42.8,87,30.21,10.0,NNW,10.4,19.6,N/A,,Overcast,340,2013-11-07 07:10:00
1:30 AM,46.4,42.8,87,30.22,10.0,NNW,11.5,18.4,N/A,,Overcast,330,2013-11-07 07:30:00
1:50 AM,46.4,41.0,81,30.22,10.0,NNW,12.7,17.3,N/A,,Overcast,330,2013-11-07 07:50:00
2:10 AM,44.6,41.0,87,30.23,10.0,NNW,11.5,17.3,N/A,,Overcast,340,2013-11-07 08:10:00
2:30 AM,44.6,41.0,87,30.24,10.0,North,11.5,19.6,N/A,,Overcast,350,2013-11-07 08:30:00
2:50 AM,44.6,39.2,81,30.24,10.0,North,12.7,23.0,N/A,,Overcast,360,2013-11-07 08:50:00
3:10 AM,44.6,39.2,81,30.24,10.0,North,10.4,-,N/A,,Overcast,360,2013-11-07 09:10:00
3:30 AM,44.6,39.2,81,30.25,10.0,North,9.2,-,N/A,,Overcast,350,2013-11-07 09:30:00
3:50 AM,44.6,39.2,81,30.24,10.0,North,11.5,16.1,N/A,,Overcast,350,2013-11-07 09:50:00
4:10 AM,44.6,37.4,76,30.25,10.0,North,11.5,17.3,N/A,,Overcast,360,2013-11-07 10:10:00
4:30 AM,44.6,37.4,76,30.27,10.0,North,12.7,20.7,N/A,,Overcast,360,2013-11-07 10:30:00
4:50 AM,44.6,37.4,76,30.27,10.0,North,10.4,20.7,N/A,,Overcast,10,2013-11-07 10:50:00
5:10 AM,44.6,37.4,76,30.29,10.0,NNW,10.4,20.7,N/A,,Overcast,340,2013-11-07 11:10:00
5:30 AM,44.6,35.6,71,30.30,10.0,North,11.5,23.0,N/A,,Overcast,350,2013-11-07 11:30:00
5:50 AM,42.8,35.6,76,30.31,10.0,NNW,10.4,24.2,N/A,,Overcast,340,2013-11-07 11:50:00
6:10 AM,42.8,37.4,81,30.32,10.0,North,11.5,16.1,N/A,,Overcast,350,2013-11-07 12:10:00
6:30 AM,41.0,35.6,81,30.33,10.0,North,9.2,19.6,N/A,,Overcast,350,2013-11-07 12:30:00
6:50 AM,41.0,35.6,81,30.35,10.0,North,10.4,19.6,N/A,,Overcast,360,2013-11-07 12:50:00
7:10 AM,41.0,37.4,87,30.36,10.0,NNW,10.4,18.4,N/A,,Overcast,340,2013-11-07 13:10:00
7:30 AM,41.0,37.4,87,30.37,10.0,NNW,8.1,-,N/A,,Overcast,340,2013-11-07 13:30:00
7:50 AM,41.0,37.4,87,30.37,10.0,North,6.9,-,N/A,,Mostly Cloudy,350,2013-11-07 13:50:00
8:10 AM,42.8,37.4,81,30.38,10.0,North,6.9,-,N/A,,Mostly Cloudy,350,2013-11-07 14:10:00
8:30 AM,44.6,37.4,76,30.37,10.0,North,9.2,-,N/A,,Partly Cloudy,350,2013-11-07 14:30:00
8:50 AM,46.4,37.4,71,30.37,10.0,North,11.5,-,N/A,,Clear,10,2013-11-07 14:50:00
9:10 AM,46.4,37.4,71,30.36,10.0,NNE,11.5,16.1,N/A,,Clear,20,2013-11-07 15:10:00
9:30 AM,48.2,35.6,62,30.37,10.0,North,10.4,17.3,N/A,,Clear,360,2013-11-07 15:30:00
9:50 AM,48.2,32.0,54,30.36,10.0,North,9.2,-,N/A,,Clear,350,2013-11-07 15:50:00
10:10 AM,50.0,32.0,50,30.37,10.0,NNE,10.4,19.6,N/A,,Clear,30,2013-11-07 16:10:00
10:30 AM,50.0,32.0,50,30.37,10.0,North,10.4,-,N/A,,Clear,350,2013-11-07 16:30:00
10:50 AM,51.8,32.0,47,30.37,10.0,North,9.2,-,N/A,,Clear,350,2013-11-07 16:50:00
11:10 AM,51.8,32.0,47,30.37,10.0,North,9.2,19.6,N/A,,Clear,360,2013-11-07 17:10:00
11:30 AM,53.6,32.0,44,30.36,10.0,NNW,11.5,-,N/A,,Clear,340,2013-11-07 17:30:00
11:50 AM,53.6,32.0,44,30.35,10.0,NNW,13.8,17.3,N/A,,Clear,340,2013-11-07 17:50:00
12:10 PM,53.6,28.4,38,30.34,10.0,NNW,13.8,18.4,N/A,,Clear,340,2013-11-07 18:10:00
12:30 PM,55.4,28.4,36,30.34,10.0,North,11.5,-,N/A,,Clear,350,2013-11-07 18:30:00
12:50 PM,55.4,30.2,38,30.33,10.0,North,13.8,19.6,N/A,,Clear,350,2013-11-07 18:50:00
1:10 PM,55.4,28.4,36,30.32,10.0,NNW,12.7,18.4,N/A,,Clear,330,2013-11-07 19:10:00
1:30 PM,55.4,28.4,36,30.32,10.0,NNW,13.8,18.4,N/A,,Clear,330,2013-11-07 19:30:00
1:50 PM,55.4,28.4,36,30.32,10.0,NNW,12.7,21.9,N/A,,Clear,330,2013-11-07 19:50:00
2:10 PM,55.4,28.4,36,30.32,10.0,NNW,15.0,-,N/A,,Clear,330,2013-11-07 20:10:00
2:30 PM,55.4,26.6,33,30.32,10.0,NNW,13.8,21.9,N/A,,Clear,340,2013-11-07 20:30:00
2:50 PM,55.4,28.4,36,30.31,10.0,NNW,6.9,17.3,N/A,,Clear,330,2013-11-07 20:50:00
3:10 PM,55.4,28.4,36,30.31,10.0,NNW,9.2,-,N/A,,Clear,340,2013-11-07 21:10:00
3:30 PM,55.4,28.4,36,30.31,10.0,NNW,9.2,-,N/A,,Clear,340,2013-11-07 21:30:00
3:50 PM,53.6,28.4,38,30.31,10.0,NNW,6.9,-,N/A,,Clear,340,2013-11-07 21:50:00
4:10 PM,53.6,28.4,38,30.32,10.0,NNW,8.1,-,N/A,,Clear,330,2013-11-07 22:10:00
4:30 PM,51.8,28.4,41,30.31,10.0,NNW,8.1,-,N/A,,Clear,340,2013-11-07 22:30:00
4:50 PM,50.0,28.4,43,30.31,10.0,NNW,4.6,-,N/A,,Clear,330,2013-11-07 22:50:00
5:10 PM,48.2,28.4,46,30.32,10.0,NNW,4.6,-,N/A,,Clear,330,2013-11-07 23:10:00
5:30 PM,44.6,32.0,61,30.32,10.0,NW,4.6,-,N/A,,Clear,310,2013-11-07 23:30:00
5:50 PM,44.6,32.0,61,30.33,10.0,WNW,4.6,-,N/A,,Clear,300,2013-11-07 23:50:00
6:10 PM,41.0,33.8,76,30.34,10.0,WNW,3.5,-,N/A,,Clear,290,2013-11-08 00:10:00
6:30 PM,41.0,33.8,76,30.34,10.0,WNW,3.5,-,N/A,,Clear,290,2013-11-08 00:30:00
6:50 PM,39.2,35.6,87,30.35,10.0,WNW,4.6,-,N/A,,Clear,300,2013-11-08 00:50:00
7:10 PM,39.2,35.6,87,30.34,10.0,NNW,3.5,-,N/A,,Clear,340,2013-11-08 01:10:00
7:30 PM,39.2,33.8,81,30.34,10.0,NNW,4.6,-,N/A,,Clear,330,2013-11-08 01:30:00
7:50 PM,39.2,32.0,75,30.35,10.0,NNW,3.5,-,N/A,,Clear,330,2013-11-08 01:50:00
8:10 PM,39.2,32.0,75,30.35,10.0,NNW,4.6,-,N/A,,Clear,330,2013-11-08 02:10:00
8:30 PM,39.2,32.0,75,30.35,10.0,NW,4.6,-,N/A,,Clear,320,2013-11-08 02:30:00
8:50 PM,37.4,32.0,81,30.35,10.0,Calm,Calm,-,N/A,,Clear,0,2013-11-08 02:50:00
9:10 PM,37.4,32.0,81,30.35,10.0,Calm,Calm,-,N/A,,Clear,0,2013-11-08 03:10:00
9:30 PM,37.4,32.0,81,30.36,10.0,Calm,Calm,-,N/A,,Clear,0,2013-11-08 03:30:00
9:50 PM,37.4,32.0,81,30.35,10.0,Calm,Calm,-,N/A,,Clear,0,2013-11-08 03:50:00
10:10 PM,35.6,32.0,87,30.35,10.0,Calm,Calm,-,N/A,,Clear,0,2013-11-08 04:10:00
10:30 PM,35.6,32.0,87,30.36,10.0,Calm,Calm,-,N/A,,Clear,0,2013-11-08 04:30:00
10:50 PM,35.6,32.0,87,30.36,10.0,Calm,Calm,-,N/A,,Clear,0,2013-11-08 04:50:00
11:10 PM,35.6,32.0,87,30.35,10.0,Calm,Calm,-,N/A,,Clear,0,2013-11-08 05:10:00
11:30 PM,33.8,32.0,93,30.35,10.0,Calm,Calm,-,N/A,,Clear,0,2013-11-08 05:30:00
11:50 PM,33.8,32.0,93,30.35,10.0,SSE,3.5,-,N/A,,Clear,150,2013-11-08 05:50:00